SCP
0 0 0 0 0 0 0 0 0 0 0 0 0 0 0 0 0 0 0 0 0 0 0 0 0 0 0 0 0 0 0 0 0 0 0 0 0 0 0 0 0 0 0 0 0
0 0 0 0 0 0 0 0 0 0 0 0 0 0 0 0 0 0 0 0 0 0 0 0 0 0 0 0 0 0 0 0 0 0 0 0 0 0 0 0 0 0 0 0 0
0 0 0 0 0 0 0 0 0 0 0 0 0 0 0 0 0 0 0 0 0 -0 -0 0 0 0 0 0 0 0 0 0 0 0 0 0 0 0 0 0 0 0 -0 -0 0
0 0 0 0 0 0 0 0 0 0 0 0 0 0 0 0 0 0 0 0 0 0 0 0 0 0 0 0 0 0 0 0 0 0 0 0 0 0 0 0 0 0 0 0 0
0 0 0 0 0 0 0 0 0 0 0 0 0 0 0 0 0 0 0 0 0 0 0 0 0 0 0 0 0 0 0 0 0 0 0 0 0 0 0 0 0 0 0 0 0
0 0 0 0 0 0 0 0 0 0 0 0 0 0 0 0 0 0 0 0 0 0 0 0 0 0 0 0 0 0 0 0 0 0 0 0 0 0 0 0 0 0 0 0 0
0 0 0 0 0 0 0 0 0 0 0 0 0 0 0 0 0 0 0 0 0 0 0 0 0 0 0 0 0 0 0 0 0 0 0 0 0 0 0 0 0 0 0 0 0
0 0 0 0 0 0 0 0 0 0 0 0 0 0 0 0 0 0 0 0 0 0 0 0 0 0 0 0 0 0 0 0 0 0 0 0 0 0 0 0 0 0 0 0 0
0 0 0 0 0 0 0 0 0 0 0 0 0 0 0 0 0 0 0 0 0 0 0 0 0 0 0 0 0 0 0 0 0 0 0 0 0 0 0 0 0 0 0 0 0
0 0 0 0 0 0 0 0 0 0 0 0 0 0 0 0 0 0 0 0 0 0 0 0 0 0 0 0 0 0 0 0 0 0 0 0 0 0 0 0 0 0 0 0 0
0 0 0 0 0 0 0 0 0 0 0 0 0 0 0 0 0 0 0 0 0 0 0 0 0 0 0 0 0 0 0 0 0 0 0 0 0 0 0 0 -0 0 0 0 0
0 0 0 0 0 0 0 0 0 0 0 0 0 0 0 0 0 0 0 0 0 0 0 0 0 0 0 0 0 0 0 0 0 0 0 0 0 0 0 0 0 0 0 0 0
0 0 0 0 0 0 0 0 0 0 0 0 0 0 0 0 0 0 0 0 0 0 0 0 0 0 0 0 0 0 0 0 0 0 0 0 0 0 0 0 0 0 0 0 0
0 0 0 0 0 0 0 0 0 0 0 0 0 0 0 0 0 0 0 0 0 0 0 0 0 0 0 0 0 0 0 0 0 0 0 0 0 0 0 0 0 0 0 0 0
0 0 0 0 0 0 0 0 0 0 0 0 0 0 0 0 0 0 0 0 0 0 0 0 0 0 0 0 0 0 0 0 0 0 0 0 0 -0 -0 0 0 0 0 0 0
0 0 0 0 0 0 0 0 0 0 0 0 0 0 0 0 0 0 0 0 0 0 0 0 0 0 0 0 0 0 0 0 0 0 0 0 0 0 0 0 0 0 0 0 0
0 0 0 0 0 0 0 0 0 0 0 0 0 0 0 0 0 0 0 0 0 0 0 0 0 0 0 0 0 0 0 0 0 0 0 0 0 0 0 0 0 0 0 0 0
0 0 0 0 0 0 0 0 0 0 0 0 0 0 0 0 0 0 0 0 0 0 0 0 0 0 0 0 0 0 0 0 0 0 0 0 0 0 0 0 0 0 0 0 0
0 0 0 0 0 0 0 0 0 0 0 0 0 0 0 0 0 0 0 0 0 0 0 0 0 0 0 0 0 0 0 0 0 0 0 0 0 0 0 0 0 0 0 0 0
0 0 0 0 0 0 0 0 0 0 0 0 0 0 0 0 0 0 0 0 0 0 0 0 0 0 0 0 0 0 0 0 0 0 0 0 0 0 0 0 0 0 0 0 0
0 0 0 0 0 0 0 0 0 0 0 0 0 0 0 0 0 0 0 0 0 0 0 0 0 0 0 0 0 0 0 0 0 0 0 0 0 0 0 0 0 0 0 0 0
0 0 0 0 0 0 0 0 0 0 0 0 0 0 0 0 0 0 0 0 0 0 0 0 0 0 0 0 0 0 0 0 0 0 0 0 0 0 0 0 0 0 0 0 0
0 0 0 0 0 0 0 0 0 0 0 0 0 0 0 0 0 0 0 0 0 0 0 0 0 0 0 0 0 0 0 0 0 0 0 0 0 0 0 0 0 0 0 -0 -0
0 0 0 0 0 0 0 0 0 0 0 0 0 0 0 0 0 0 0 0 0 0 0 0 0 0 0 0 0 0 0 0 0 0 0 0 0 0 0 0 0 -0 -0 -0 -0
0 0 0 0 0 0 0 0 0 0 0 0 0 0 0 0 0 0 0 0 0 0 0 0 0 0 0 0 0 0 0 0 0 0 0 0 0 0 0 0 0 0 0 0 0
0 0 0 0 0 0 0 0 0 0 0 0 0 0 0 0 0 0 0 0 0 0 0 0 0 0 0 0 0 0 0 0 0 0 0 0 0 0 0 0 0 0 0 0 0
0 0 0 0 0 0 0 0 0 0 0 0 0 0 0 0 0 0 0 0 0 0 0 0 0 0 0 0 0 0 0 0 0 0 0 0 0 0 0 0 0 0 0 0 0
Wind_Speed_500mb
5 6 6 7 9 11 12 12 12 13 16 17 19 22 22 25 27 30 26 18 17 12 12 8 6 2 2 4 4 5 5 8 12 3 3 17 6 5 14 23 32 29 38 39 31
9 9 10 11 11 13 14 15 16 17 17 18 19 21 23 26 30 27 16 9 3 5 9 7 3 6 8 5 4 6 5 10 14 13 13 32 25 26 27 32 44 47 36 36 34
14 15 16 16 16 17 18 19 19 21 21 21 22 23 23 25 27 5 3 8 9 7 5 9 11 11 16 13 9 8 7 12 25 35 18 17 28 34 29 16 41 51 61 50 46
20 20 20 20 21 21 21 22 23 24 24 23 23 24 21 16 9 4 10 10 9 7 9 13 11 9 11 11 21 11 20 28 32 26 15 11 30 30 44 50 52 59 60 57 53
24 24 23 23 22 23 23 23 24 26 27 26 24 24 21 8 17 23 23 25 24 20 15 15 18 21 11 13 10 14 22 33 33 24 31 31 36 28 57 61 55 51 43 39 41
25 24 22 21 22 25 26 26 26 27 27 27 25 23 16 14 21 26 24 18 17 16 17 21 8 14 21 20 14 20 21 31 36 49 47 24 32 24 46 43 42 45 44 44 41
25 24 21 20 21 23 24 26 26 26 26 26 23 23 23 30 25 22 23 20 18 16 18 19 23 12 10 11 15 11 11 19 40 32 14 23 19 18 41 19 43 46 49 49 54
25 21 18 18 19 22 23 24 25 26 24 23 21 17 15 19 24 23 26 24 19 23 25 26 28 15 15 12 8 9 12 7 12 13 10 14 17 17 34 48 68 75 54 47 43
23 20 18 19 20 22 25 24 25 25 23 20 12 10 10 11 12 15 17 10 13 20 23 19 11 10 10 6 9 15 10 17 17 14 12 11 12 25 48 45 63 59 51 46 17
25 22 20 19 19 22 26 26 25 23 17 8 7 7 14 7 9 8 7 16 8 12 6 8 9 5 6 7 10 13 16 16 18 14 8 13 22 19 43 52 54 55 49 12 40
27 24 23 19 20 21 22 17 14 7 7 13 15 21 13 20 21 20 10 14 13 11 11 15 7 13 22 23 24 16 19 21 15 18 19 14 15 17 44 51 47 34 33 49 42
30 26 24 25 19 16 15 4 8 9 17 32 43 42 39 38 10 14 14 15 12 10 18 5 12 27 17 16 11 15 19 18 14 17 6 16 20 23 36 41 50 21 45 43 29
32 28 24 22 16 16 5 5 8 10 9 18 23 13 10 14 9 8 17 10 13 15 16 19 13 19 9 13 21 15 17 18 19 15 8 14 17 17 22 16 36 54 43 31 29
32 32 26 21 14 6 5 4 8 11 7 11 7 3 1 10 6 7 22 9 11 9 16 17 14 7 7 17 11 19 10 8 9 8 7 14 15 9 19 15 30 42 41 31 26
45 42 25 23 11 10 9 6 6 2 10 6 7 7 8 4 10 1 11 7 9 11 4 5 5 4 7 9 2 3 7 5 7 12 11 11 9 11 19 21 17 28 35 31 27
48 34 27 27 27 26 12 9 3 4 15 8 9 7 8 7 5 8 3 6 3 4 11 16 5 5 7 4 4 6 7 13 13 4 7 20 13 4 6 13 12 25 31 31 29
37 32 31 28 22 18 18 14 6 10 7 11 7 10 5 9 10 11 11 9 7 4 8 9 16 8 4 6 7 4 5 8 5 4 12 9 9 8 5 9 24 31 36 30 28
37 34 32 30 27 26 26 3 16 8 15 4 5 7 7 12 7 13 6 8 16 5 6 7 6 12 9 6 2 8 4 6 10 5 12 10 12 11 13 38 47 44 37 29 22
32 28 28 30 31 31 18 9 8 12 8 3 9 10 10 7 3 12 15 11 6 8 9 7 8 7 6 4 6 4 4 4 3 1 1 11 15 20 22 21 34 36 30 22 16
33 29 27 31 33 27 7 13 12 16 3 2 10 11 10 13 12 11 10 7 8 6 11 9 9 9 6 8 8 8 1 2 3 6 10 10 13 18 12 14 19 22 24 15 8
32 16 18 37 25 15 6 9 12 13 10 10 11 18 15 12 7 11 6 6 8 8 9 7 1 8 13 6 5 2 3 6 6 8 5 13 13 14 15 14 16 19 16 10 0
22 4 11 37 13 11 7 11 13 11 16 11 8 12 12 11 13 11 13 12 17 13 5 5 5 10 12 19 15 6 10 16 11 25 11 16 18 15 18 20 24 16 13 17 16
17 8 17 47 10 17 14 18 29 12 20 11 13 15 12 16 10 16 15 17 23 8 2 7 5 4 18 6 10 3 5 6 7 4 18 17 15 12 15 15 15 23 28 27 20
16 5 14 46 36 15 24 27 25 20 22 25 6 13 11 7 10 6 4 7 15 11 12 9 4 11 15 18 14 9 21 21 8 14 25 32 35 29 27 8 20 33 31 24 17
19 10 25 11 24 29 16 9 31 29 21 18 15 29 20 14 20 25 18 11 17 18 9 4 10 11 22 24 25 21 25 33 29 33 34 48 44 47 38 12 9 7 10 9 11
12 9 8 9 35 30 33 25 27 9 17 14 21 10 19 25 15 3 8 7 2 9 13 10 9 4 14 9 17 30 40 36 38 41 44 46 50 26 9 11 6 3 3 5 7
28 20 8 16 8 15 25 35 14 15 1 2 6 15 10 7 27 22 13 9 7 2 5 1 4 5 13 8 6 15 37 35 30 39 37 38 25 4 7 6 8 10 13 16 16
Wind_Direction_500mb
292 315 327 332 331 332 331 329 328 327 326 324 324 323 323 322 320 313 308 285 287 263 242 232 240 262 158 246 243 304 297 274 284 354 356 137 187 282 288 269 283 273 268 281 280
287 295 300 304 306 308 309 310 312 311 311 310 311 313 316 320 319 309 296 277 197 184 211 213 207 232 236 203 212 240 241 270 333 347 334 327 330 325 313 289 292 295 290 285 264
276 283 287 291 294 296 299 299 301 303 304 304 305 306 312 323 325 254 141 121 117 96 162 184 237 227 247 241 217 221 229 307 320 333 355 322 304 301 289 285 273 287 301 303 304
279 283 286 291 296 299 299 303 305 304 303 302 301 300 305 314 301 308 231 246 260 276 266 215 198 207 233 253 232 256 268 277 290 302 319 286 301 298 284 271 272 282 287 290 293
280 282 287 292 297 298 302 303 304 302 302 301 299 298 302 291 251 264 264 269 267 274 228 200 216 227 253 260 295 272 252 280 293 300 287 287 279 278 282 277 275 282 291 292 293
272 278 285 292 295 299 303 307 309 308 306 303 297 289 277 234 258 261 268 260 248 234 211 203 214 258 296 285 269 298 336 296 284 273 267 262 277 297 279 297 286 279 282 288 294
266 272 278 286 294 298 304 310 311 309 307 304 297 285 266 261 259 263 261 253 239 223 216 235 244 245 317 304 346 324 311 289 274 269 247 200 294 222 278 313 316 303 296 299 297
261 265 270 277 287 296 302 308 313 312 310 304 294 274 253 258 255 260 257 254 241 230 217 220 232 248 260 278 295 260 250 285 267 178 147 129 267 296 314 318 303 297 301 301 306
245 252 261 271 286 298 305 310 313 311 306 301 281 242 258 263 255 264 249 240 234 226 225 234 228 234 257 219 281 230 253 255 281 234 126 169 246 278 293 289 282 293 306 305 69
242 247 255 272 295 308 315 314 309 298 287 289 258 253 253 248 258 259 248 211 184 182 143 168 194 212 230 215 229 255 295 307 312 315 313 210 242 264 302 296 282 297 299 48 75
242 248 260 281 302 312 329 341 331 321 313 235 286 267 282 270 271 270 233 177 137 172 190 193 212 204 229 231 244 287 277 278 283 300 294 294 295 288 279 289 292 290 70 85 75
243 252 270 283 290 308 332 351 309 290 302 273 268 261 258 255 251 259 183 171 189 210 199 125 228 237 255 277 289 304 301 288 276 284 7 292 295 291 279 265 270 95 82 74 67
253 260 266 283 304 295 309 314 324 324 251 274 242 224 225 264 244 167 181 202 204 226 197 221 253 307 284 281 276 257 252 277 275 304 296 280 267 267 272 302 102 88 85 74 67
250 248 255 273 285 230 226 318 322 328 268 190 158 169 330 170 186 229 200 204 226 259 250 228 256 276 262 260 263 269 297 311 341 343 229 53 300 244 270 97 84 81 82 81 71
250 246 246 242 217 238 226 252 284 357 284 67 140 160 155 206 133 114 192 165 249 209 202 245 136 143 215 229 104 222 11 328 275 261 309 239 254 252 239 113 98 93 94 86 77
235 229 226 233 231 231 230 202 198 202 241 137 135 149 185 179 127 126 165 193 239 263 227 251 132 230 225 48 171 47 277 252 230 180 274 218 202 315 85 141 134 111 104 100 86
209 215 221 212 205 217 190 160 213 227 260 151 130 187 218 156 160 199 171 189 215 231 200 167 204 166 114 225 120 142 255 322 301 157 226 53 343 234 74 86 149 130 111 96 88
214 204 203 210 205 188 161 94 212 177 266 110 156 176 235 173 165 176 217 228 230 195 283 239 284 146 186 226 16 231 203 182 260 263 302 327 246 249 120 87 100 109 107 100 87
180 178 187 194 192 181 177 204 213 205 216 222 161 234 240 179 270 194 210 232 156 170 225 297 197 152 159 109 139 64 208 59 15 33 227 253 275 291 125 102 108 107 96 84 74
191 192 196 192 196 199 199 220 204 251 34 166 225 228 252 280 172 183 214 73 91 63 7 31 306 268 91 123 216 184 94 269 74 245 231 263 309 270 29 141 105 108 110 108 92
195 173 205 197 191 211 222 225 233 250 192 212 231 256 257 260 250 240 237 95 148 113 86 81 193 247 356 209 258 306 272 210 237 213 234 267 262 48 93 109 114 107 116 120 184
164 119 198 180 160 189 203 197 232 210 215 255 296 282 260 261 246 224 216 194 127 100 173 109 186 257 234 300 294 261 254 254 241 263 238 267 250 101 104 116 134 150 201 228 259
138 180 194 185 209 212 218 226 233 202 210 202 221 219 221 236 235 236 240 74 86 124 167 140 173 308 323 279 72 142 60 305 335 120 258 271 259 116 139 158 184 219 239 256 243
155 178 181 204 231 244 216 231 218 209 249 236 229 239 225 236 230 232 221 119 106 96 97 70 244 189 225 250 336 317 298 284 235 271 276 264 285 284 281 225 247 235 238 218 220
192 233 188 193 226 230 257 272 223 221 210 216 241 235 225 227 235 241 232 215 136 137 135 187 236 210 255 272 290 286 281 279 273 267 260 273 276 278 288 322 36 10 94 166 201
209 209 201 300 211 205 216 226 240 253 171 203 233 219 232 241 213 159 72 38 241 157 193 206 251 253 277 258 275 275 269 267 268 267 266 268 270 291 51 72 37 8 322 281 311
213 201 195 189 199 200 216 222 219 224 26 58 215 236 245 44 72 75 62 9 345 87 159 288 120 87 259 167 307 298 251 248 253 257 261 267 274 358 354 51 66 12 307 302 300
Wind_Speed_850mb
5 6 6 7 9 11 12 12 12 13 16 17 19 22 22 25 27 30 26 18 17 12 12 8 6 2 2 4 4 5 5 8 12 3 3 17 6 5 14 23 32 29 38 39 31
9 9 10 11 11 13 14 15 16 17 17 18 19 21 23 26 30 27 16 9 3 5 9 7 3 6 8 5 4 6 5 10 14 13 13 32 25 26 27 32 44 47 36 36 34
14 15 16 16 16 17 18 19 19 21 21 21 22 23 23 25 27 5 3 8 9 7 5 9 11 11 16 13 9 8 7 12 25 35 18 17 28 34 29 16 41 51 61 50 46
20 20 20 20 21 21 21 22 23 24 24 23 23 24 21 16 9 4 10 10 9 7 9 13 11 9 11 11 21 11 20 28 32 26 15 11 30 30 44 50 52 59 60 57 53
24 24 23 23 22 23 23 23 24 26 27 26 24 24 21 8 17 23 23 25 24 20 15 15 18 21 11 13 10 14 22 33 33 24 31 31 36 28 57 61 55 51 43 39 41
25 24 22 21 22 25 26 26 26 27 27 27 25 23 16 14 21 26 24 18 17 16 17 21 8 14 21 20 14 20 21 31 36 49 47 24 32 24 46 43 42 45 44 44 41
25 24 21 20 21 23 24 26 26 26 26 26 23 23 23 30 25 22 23 20 18 16 18 19 23 12 10 11 15 11 11 19 40 32 14 23 19 18 41 19 43 46 49 49 54
25 21 18 18 19 22 23 24 25 26 24 23 21 17 15 19 24 23 26 24 19 23 25 26 28 15 15 12 8 9 12 7 12 13 10 14 17 17 34 48 68 75 54 47 43
23 20 18 19 20 22 25 24 25 25 23 20 12 10 10 11 12 15 17 10 13 20 23 19 11 10 10 6 9 15 10 17 17 14 12 11 12 25 48 45 63 59 51 46 17
25 22 20 19 19 22 26 26 25 23 17 8 7 7 14 7 9 8 7 16 8 12 6 8 9 5 6 7 10 13 16 16 18 14 8 13 22 19 43 52 54 55 49 12 40
27 24 23 19 20 21 22 17 14 7 7 13 15 21 13 20 21 20 10 14 13 11 11 15 7 13 22 23 24 16 19 21 15 18 19 14 15 17 44 51 47 34 33 49 42
30 26 24 25 19 16 15 4 8 9 17 32 43 42 39 38 10 14 14 15 12 10 18 5 12 27 17 16 11 15 19 18 14 17 6 16 20 23 36 41 50 21 45 43 29
32 28 24 22 16 16 5 5 8 10 9 18 23 13 10 14 9 8 17 10 13 15 16 19 13 19 9 13 21 15 17 18 19 15 8 14 17 17 22 16 36 54 43 31 29
32 32 26 21 14 6 5 4 8 11 7 11 7 3 1 10 6 7 22 9 11 9 16 17 14 7 7 17 11 19 10 8 9 8 7 14 15 9 19 15 30 42 41 31 26
45 42 25 23 11 10 9 6 6 2 10 6 7 7 8 4 10 1 11 7 9 11 4 5 5 4 7 9 2 3 7 5 7 12 11 11 9 11 19 21 17 28 35 31 27
48 34 27 27 27 26 12 9 3 4 15 8 9 7 8 7 5 8 3 6 3 4 11 16 5 5 7 4 4 6 7 13 13 4 7 20 13 4 6 13 12 25 31 31 29
37 32 31 28 22 18 18 14 6 10 7 11 7 10 5 9 10 11 11 9 7 4 8 9 16 8 4 6 7 4 5 8 5 4 12 9 9 8 5 9 24 31 36 30 28
37 34 32 30 27 26 26 3 16 8 15 4 5 7 7 12 7 13 6 8 16 5 6 7 6 12 9 6 2 8 4 6 10 5 12 10 12 11 13 38 47 44 37 29 22
32 28 28 30 31 31 18 9 8 12 8 3 9 10 10 7 3 12 15 11 6 8 9 7 8 7 6 4 6 4 4 4 3 1 1 11 15 20 22 21 34 36 30 22 16
33 29 27 31 33 27 7 13 12 16 3 2 10 11 10 13 12 11 10 7 8 6 11 9 9 9 6 8 8 8 1 2 3 6 10 10 13 18 12 14 19 22 24 15 8
32 16 18 37 25 15 6 9 12 13 10 10 11 18 15 12 7 11 6 6 8 8 9 7 1 8 13 6 5 2 3 6 6 8 5 13 13 14 15 14 16 19 16 10 0
22 4 11 37 13 11 7 11 13 11 16 11 8 12 12 11 13 11 13 12 17 13 5 5 5 10 12 19 15 6 10 16 11 25 11 16 18 15 18 20 24 16 13 17 16
17 8 17 47 10 17 14 18 29 12 20 11 13 15 12 16 10 16 15 17 23 8 2 7 5 4 18 6 10 3 5 6 7 4 18 17 15 12 15 15 15 23 28 27 20
16 5 14 46 36 15 24 27 25 20 22 25 6 13 11 7 10 6 4 7 15 11 12 9 4 11 15 18 14 9 21 21 8 14 25 32 35 29 27 8 20 33 31 24 17
19 10 25 11 24 29 16 9 31 29 21 18 15 29 20 14 20 25 18 11 17 18 9 4 10 11 22 24 25 21 25 33 29 33 34 48 44 47 38 12 9 7 10 9 11
12 9 8 9 35 30 33 25 27 9 17 14 21 10 19 25 15 3 8 7 2 9 13 10 9 4 14 9 17 30 40 36 38 41 44 46 50 26 9 11 6 3 3 5 7
28 20 8 16 8 15 25 35 14 15 1 2 6 15 10 7 27 22 13 9 7 2 5 1 4 5 13 8 6 15 37 35 30 39 37 38 25 4 7 6 8 10 13 16 16
Wind_Direction_850mb
292 315 327 332 331 332 331 329 328 327 326 324 324 323 323 322 320 313 308 285 287 263 242 232 240 262 158 246 243 304 297 274 284 354 356 137 187 282 288 269 283 273 268 281 280
287 295 300 304 306 308 309 310 312 311 311 310 311 313 316 320 319 309 296 277 197 184 211 213 207 232 236 203 212 240 241 270 333 347 334 327 330 325 313 289 292 295 290 285 264
276 283 287 291 294 296 299 299 301 303 304 304 305 306 312 323 325 254 141 121 117 96 162 184 237 227 247 241 217 221 229 307 320 333 355 322 304 301 289 285 273 287 301 303 304
279 283 286 291 296 299 299 303 305 304 303 302 301 300 305 314 301 308 231 246 260 276 266 215 198 207 233 253 232 256 268 277 290 302 319 286 301 298 284 271 272 282 287 290 293
280 282 287 292 297 298 302 303 304 302 302 301 299 298 302 291 251 264 264 269 267 274 228 200 216 227 253 260 295 272 252 280 293 300 287 287 279 278 282 277 275 282 291 292 293
272 278 285 292 295 299 303 307 309 308 306 303 297 289 277 234 258 261 268 260 248 234 211 203 214 258 296 285 269 298 336 296 284 273 267 262 277 297 279 297 286 279 282 288 294
266 272 278 286 294 298 304 310 311 309 307 304 297 285 266 261 259 263 261 253 239 223 216 235 244 245 317 304 346 324 311 289 274 269 247 200 294 222 278 313 316 303 296 299 297
261 265 270 277 287 296 302 308 313 312 310 304 294 274 253 258 255 260 257 254 241 230 217 220 232 248 260 278 295 260 250 285 267 178 147 129 267 296 314 318 303 297 301 301 306
245 252 261 271 286 298 305 310 313 311 306 301 281 242 258 263 255 264 249 240 234 226 225 234 228 234 257 219 281 230 253 255 281 234 126 169 246 278 293 289 282 293 306 305 69
242 247 255 272 295 308 315 314 309 298 287 289 258 253 253 248 258 259 248 211 184 182 143 168 194 212 230 215 229 255 295 307 312 315 313 210 242 264 302 296 282 297 299 48 75
242 248 260 281 302 312 329 341 331 321 313 235 286 267 282 270 271 270 233 177 137 172 190 193 212 204 229 231 244 287 277 278 283 300 294 294 295 288 279 289 292 290 70 85 75
243 252 270 283 290 308 332 351 309 290 302 273 268 261 258 255 251 259 183 171 189 210 199 125 228 237 255 277 289 304 301 288 276 284 7 292 295 291 279 265 270 95 82 74 67
253 260 266 283 304 295 309 314 324 324 251 274 242 224 225 264 244 167 181 202 204 226 197 221 253 307 284 281 276 257 252 277 275 304 296 280 267 267 272 302 102 88 85 74 67
250 248 255 273 285 230 226 318 322 328 268 190 158 169 330 170 186 229 200 204 226 259 250 228 256 276 262 260 263 269 297 311 341 343 229 53 300 244 270 97 84 81 82 81 71
250 246 246 242 217 238 226 252 284 357 284 67 140 160 155 206 133 114 192 165 249 209 202 245 136 143 215 229 104 222 11 328 275 261 309 239 254 252 239 113 98 93 94 86 77
235 229 226 233 231 231 230 202 198 202 241 137 135 149 185 179 127 126 165 193 239 263 227 251 132 230 225 48 171 47 277 252 230 180 274 218 202 315 85 141 134 111 104 100 86
209 215 221 212 205 217 190 160 213 227 260 151 130 187 218 156 160 199 171 189 215 231 200 167 204 166 114 225 120 142 255 322 301 157 226 53 343 234 74 86 149 130 111 96 88
214 204 203 210 205 188 161 94 212 177 266 110 156 176 235 173 165 176 217 228 230 195 283 239 284 146 186 226 16 231 203 182 260 263 302 327 246 249 120 87 100 109 107 100 87
180 178 187 194 192 181 177 204 213 205 216 222 161 234 240 179 270 194 210 232 156 170 225 297 197 152 159 109 139 64 208 59 15 33 227 253 275 291 125 102 108 107 96 84 74
191 192 196 192 196 199 199 220 204 251 34 166 225 228 252 280 172 183 214 73 91 63 7 31 306 268 91 123 216 184 94 269 74 245 231 263 309 270 29 141 105 108 110 108 92
195 173 205 197 191 211 222 225 233 250 192 212 231 256 257 260 250 240 237 95 148 113 86 81 193 247 356 209 258 306 272 210 237 213 234 267 262 48 93 109 114 107 116 120 184
164 119 198 180 160 189 203 197 232 210 215 255 296 282 260 261 246 224 216 194 127 100 173 109 186 257 234 300 294 261 254 254 241 263 238 267 250 101 104 116 134 150 201 228 259
138 180 194 185 209 212 218 226 233 202 210 202 221 219 221 236 235 236 240 74 86 124 167 140 173 308 323 279 72 142 60 305 335 120 258 271 259 116 139 158 184 219 239 256 243
155 178 181 204 231 244 216 231 218 209 249 236 229 239 225 236 230 232 221 119 106 96 97 70 244 189 225 250 336 317 298 284 235 271 276 264 285 284 281 225 247 235 238 218 220
192 233 188 193 226 230 257 272 223 221 210 216 241 235 225 227 235 241 232 215 136 137 135 187 236 210 255 272 290 286 281 279 273 267 260 273 276 278 288 322 36 10 94 166 201
209 209 201 300 211 205 216 226 240 253 171 203 233 219 232 241 213 159 72 38 241 157 193 206 251 253 277 258 275 275 269 267 268 267 266 268 270 291 51 72 37 8 322 281 311
213 201 195 189 199 200 216 222 219 224 26 58 215 236 245 44 72 75 62 9 345 87 159 288 120 87 259 167 307 298 251 248 253 257 261 267 274 358 354 51 66 12 307 302 300